Home   Weather   Watford   Past weeks

Flag for United Kingdom Past Weather in Watford, England, United Kingdom — Yesterday and Last 2 Weeks

52 °F

Low clouds.

Feels Like: 51 °F
Forecast: 46 / 59 °F
Wind: 3 mph from Southwest

Location: Northolt

Current Time: Oct 26, 2016 at 5:09:26 AM

Latest Report: Oct 26, 2016 at 3:50 AM

Visibility: 0 mi

Pressure: 30.30 "Hg

Humidity: 100%

Dew Point: 52 °F

Location of WatfordLocation

Past Weather in Watford — Graph


Watford Temperature Yesterday

Maximum temperature yesterday: 55 °F (at 2:50 PM)
Minimum temperature yesterday: 46 °F (at 10:50 PM)
Average temperature yesterday: 50 °F

High & Low Weather Summary for the Past Weeks

High64 °F (Oct 16, 12:50 PM)100% (Oct 11, 7:50 AM)30.30 "Hg (Oct 11, 7:50 AM)
Low39 °F (Oct 11, 6:50 AM)44% (Oct 18, 2:50 PM)29.65 "Hg (Oct 14, 3:50 PM)
Average51 °F80%30.00 "Hg
* Reported Oct 11 3:50 AM — Oct 26 3:50 AM, Watford, Weather by CustomWeather, © 2016

Note: Actual official high and low records may vary slightly from our data, if they occured in-between our weather recording intervals... More about our weather records


Watford Weather History for the Previous 24 Hours

Scroll right to see more
Time TempWeatherWind HumidityBarometerVisibility
3:50 AM
Wed, Oct 26
52 °FLow clouds.3 mph100%30.30 "Hg1 mi
2:50 AM50 °FPassing clouds.1 mph94%30.30 "Hg3 mi
1:50 AM48 °FLow clouds.No wind100%30.30 "Hg4 mi
12:50 AM46 °FPassing clouds.5 mph93%30.30 "Hg2 mi
11:50 PM
Tue, Oct 25
48 °FPassing clouds.1 mph94%30.27 "Hg4 mi
10:50 PM46 °FPassing clouds.1 mph93%30.27 "Hg0 mi
9:50 PM48 °FPassing clouds.1 mph94%30.27 "Hg3 mi
8:50 PM50 °FFog.3 mph94%30.27 "Hg2 mi
7:50 PM50 °FPassing clouds.2 mph94%30.27 "Hg3 mi
6:50 PM52 °FPassing clouds.2 mph88%30.27 "Hg3 mi
5:50 PM54 °FPartly cloudy.3 mph88%30.24 "Hg4 mi
4:50 PM55 °FPartly sunny.5 mph82%30.21 "Hg5 mi
3:50 PM55 °FPartly sunny.3 mph77%30.21 "HgN/A
2:50 PM55 °FBroken clouds.6 mph77%30.21 "Hg6 mi
1:50 PM54 °FPartly sunny.3 mph82%30.21 "Hg6 mi
12:50 PM54 °FBroken clouds.5 mph82%30.21 "Hg5 mi
11:50 AM52 °FDrizzle. Partly sunny.3 mph88%30.21 "Hg4 mi
10:50 AM50 °FDrizzle. Overcast.5 mph94%30.21 "Hg4 mi
9:50 AM50 °FLight rain. Partly sunny.5 mph88%30.18 "Hg4 mi
8:50 AM48 °FLight rain. Mostly cloudy.3 mph94%30.18 "Hg4 mi
7:50 AM48 °FBroken clouds.1 mph94%30.15 "HgN/A
6:50 AM48 °FPassing clouds.3 mph87%30.12 "HgN/A
5:50 AM48 °FPassing clouds.5 mph94%30.12 "HgN/A
Weather by CustomWeather, © 2016

See weather overviewHow to use our weather pages